Location: Newark
(42.8481°N, 0.4872°E)
Time: 17:25:21
(UTC+00:00)

A-11 Canister half - Pass Details

Date: 05 November 2020
Orbit: 1525 x 1683 km, 47.3° (Epoch: 22 November)

Event Time Altitude Azimuth Distance (km) Brightness Sun altitude
Rises 13:23:21 0° 252° (WSW) 4,831 12.3 26.8°
Reaches altitude 10° 13:26:30 10° 253° (WSW) 3,825 11.9 26.5°
Maximum altitude 13:36:15 81° 341° (NNW) 1,591 9.5 25.6°
Drops below altitude 10° 13:45:42 10° 70° (ENE) 3,718 10.7 24.7°
Sets 13:48:43 0° 71° (ENE) 4,691 11.1 24.4°
